Content
SEND FEEDBACK

Daily
Averages
Monthly
Summary
Canada

QUEBEC CITY, QUEBEC


Home > North America > Canada > Quebec
Elevation: 239 feet     Latitude: 46 48N     Longitude: 071 23W

WEATHER
 
SELECT A DAY
Number of Records: 198,020;   Date Range: 6/30/96 - 12/17/14
 
SHARE

PRINT THIS DATA

[ ← Previous Day ]
WEATHER ALMANAC - MAY 6, 2014
[ Next Day → ]
[ °C ]   °F
Weather ElementAverageHighLow
Temperature49.5 °F59 °F (4:00 pm)42.8 °F (2:00 am)
Dewpoint36 °F44 °F (2:00 pm)32 °F (8:00 am)
Humidity57.8 %76 % (2:00 am)30 % (5:00 pm)
Barometer29.89 in30.03 in (11:00 pm)29.81 in (2:00 am)
Wind Speed9.4 mph16.1 mph (12:00 pm)
Wind Gust24.2 mph (7:00 pm)
Weather ElementAverage
Visibility25.5 mi
Wind DirectionWNW (277 °)

Weather ElementTotal
Precipitation---
Heating Degree Days14.1 (Base 65)
Growing Degree Days0.9 (Base 50)
Averaged from 27 records on May 6, 2014
WEATHER CONDITIONS BREAKOUT
WIND DIRECTION BREAKOUT
WEATHER BY HOUR - MAY 6, 2014
[ °C ]   °F
Local TimeTemperatureDewpointHumidityBarometerVisibilityWind DirectionWind SpeedGust SpeedPrecipitationEventsConditions
1:00 AM44.6 °F35.6 °F71 %29.82 in15.0 miWest (270°)8.1 mphOvercast
2:00 AM43.0 °F36.0 °F68 %29.81 inWest (270°)8.1 mph
2:00 AM42.8 °F35.6 °F76 %29.82 in15.0 miWest (260°)6.9 mphOvercast
3:00 AM42.8 °F33.8 °F70 %29.81 in15.0 miWNW (300°)6.9 mphOvercast
8:00 AM44.0 °F34.0 °F57 %29.83 inWest (280°)8.1 mph
8:00 AM44.6 °F32.0 °F61 %29.84 in30.0 miWest (280°)9.2 mphMostly Cloudy
9:00 AM46.4 °F33.8 °F62 %29.85 in30.0 miNW (310°)5.8 mphMostly Cloudy
10:00 AM48.2 °F35.6 °F62 %29.86 in30.0 miWest (260°)8.1 mphMostly Cloudy
11:00 AM52.0 °F38.0 °F47 %29.85 inWSW (250°)2.3 mph
11:00 AM50.0 °F33.8 °F54 %29.87 in30.0 miSW (220°)3.5 mphMostly Cloudy
12:00 PM51.8 °F37.4 °F58 %29.86 in30.0 miSSW (200°)16.1 mph21.9 mphMostly Cloudy
1:00 PM51.8 °F37.4 °F58 %29.86 in30.0 miSSW (210°)13.8 mph21.9 mphMostly Cloudy
1:28 PM50.0 °F37.4 °F62 %29.88 in30.0 miSSW (210°)12.7 mphRainLight Rain Showers
2:00 PM50.0 °F42.8 °F76 %29.88 in30.0 miSouth (180°)8.1 mphMostly Cloudy
2:00 PM51.0 °F44.0 °F68 %29.86 inSW (220°)2.3 mph
3:00 PM55.4 °F39.2 °F54 %29.88 in30.0 miWNW (300°)12.7 mphMostly Cloudy
4:00 PM59.0 °F37.4 °F45 %29.87 in30.0 miWNW (290°)16.1 mphMostly Cloudy
5:00 PM58.0 °F35.0 °F30 %29.87 inNW (320°)12.7 mph
5:00 PM57.2 °F37.4 °F48 %29.89 in30.0 miNNW (330°)12.7 mph19.6 mphMostly Cloudy
6:00 PM55.4 °F35.6 °F47 %29.92 in30.0 miNW (320°)16.1 mph23.0 mphMostly Cloudy
7:00 PM53.6 °F35.6 °F51 %29.94 in30.0 miNW (320°)16.1 mph24.2 mphScattered Clouds
8:00 PM51.0 °F34.0 °F41 %29.96 inNNW (330°)8.1 mph
8:00 PM50.0 °F33.8 °F54 %29.97 in30.0 miNNW (330°)9.2 mphPartly Cloudy
9:00 PM48.2 °F33.8 °F58 %30.00 in15.0 miNW (310°)8.1 mph17.3 mphScattered Clouds
10:00 PM46.4 °F33.8 °F62 %30.02 in15.0 miWNW (300°)6.9 mphScattered Clouds
11:00 PM46.0 °F35.0 °F55 %30.02 inNW (310°)6.9 mph
11:00 PM44.6 °F33.8 °F66 %30.03 in15.0 miWNW (300°)8.1 mphScattered Clouds
Hourly data recorded from CYQB, located miles away from Quebec City, Quebec







STORIES FROM OUR PARTNERS